User: anonymous   Login
Location: Huntington Beach
(33.6600°N, 117.9980°W)
Time: 04:44:56
(UTC-07:00)
Language:

SL-16 R/B - Orbit

View from above orbital plane
View from above orbital plane
View from above satellite
View from above satellite

Ground track
Ground track

The orbit data is extracted from the following two-line orbital elements,

1 28353U 04021B   18108.57069679 -.00000192 +00000-0 -75821-4 0  9996
2 28353 071.0005 158.0183 0002485 098.3143 261.8261 14.14208886715325
Epoch (UTC): 18 April 2018 13:41:48
Eccentricity: 0.0002485
inclination: 71.0005°
perigee height: 843 km
apogee height: 847 km
right ascension of ascending node: 158.0183°
argument of perigee: 98.3143°
revolutions per day: 14.14208886
mean anomaly at epoch: 261.8261°
orbit number at epoch: 71532

The dashed part of the orbit path shows where the satellite is in the earth's shadow,  

DLR